Home > Weather > Baden-Baden > Past weeks

Flag for Germany Past Weather in Baden-Baden, Baden-Württemberg, Germany — Yesterday and Last 2 Weeks

Now
61 °F

Passing clouds.


Feels Like: 61 °F
Forecast: 58 / 67 °F
Wind: 6 mph from Northwest

Location: Karlsruhe - Baden Wurttemberg

Current Time: Jun 1, 2016 at 9:38:37 AM

Latest Report: Jun 1, 2016 at 8:50 AM


Visibility: N/A

Pressure: 29.98 "Hg

Humidity: 77%

Dew Point: 54 °F

Location of Baden-BadenLocation

Past Weather in Baden-Baden — Graph

°F

Baden-Baden Temperature Yesterday

Maximum temperature yesterday: 72 °F (at 2:20 PM)
Minimum temperature yesterday: 57 °F (at 5:50 AM)
Average temperature yesterday: 64 °F

High & Low Weather Summary for the Past Weeks

 TemperatureHumidityPressure
High81 °F (May 22, 3:50 PM)100% (May 17, 7:20 AM)30.15 "Hg (May 17, 7:20 AM)
Low45 °F (May 20, 5:50 AM)32% (May 22, 1:50 PM)29.65 "Hg (May 30, 4:50 AM)
Average61 °F75%29.92 "Hg
* Reported May 17 7:20 AM — Jun 1 7:50 AM, Baden-Baden, Weather by CustomWeather, © 2016

Note: Actual official high and low records may vary slightly from our data, if they occured in-between our weather recording intervals... More about our weather records

Advertising

Baden-Baden Weather History for the Previous 24 Hours

Scroll right to see more
 ConditionsComfort  
Time TempWeatherWind HumidityBarometerVisibility
7:50 AM
Wed, Jun 1
59 °FPassing clouds.6 mph82%29.98 "HgN/A
7:20 AM57 °FSunny.2 mph88%29.98 "Hg10 mi
6:50 AM54 °FSunny.1 mph100%29.98 "Hg10 mi
6:20 AM54 °FPassing clouds.2 mph94%29.98 "HgN/A
5:50 AM52 °FPassing clouds.3 mph100%29.95 "HgN/A
5:20 AM54 °FPassing clouds.5 mph94%29.95 "HgN/A
4:50 AM54 °FPassing clouds.3 mph100%29.95 "HgN/A
4:20 AM55 °FPassing clouds.2 mph94%29.95 "HgN/A
11:20 PM
Tue, May 31
57 °FPassing clouds.3 mph88%29.95 "HgN/A
10:50 PM59 °FPassing clouds.3 mph82%29.92 "HgN/A
10:20 PM59 °FScattered clouds.2 mph82%29.92 "HgN/A
9:50 PM61 °FScattered clouds.2 mph77%29.92 "HgN/A
9:20 PM63 °FSunny.3 mph73%29.92 "Hg10 mi
8:50 PM63 °FSunny.5 mph73%29.89 "Hg10 mi
8:20 PM64 °FSunny.6 mph68%29.89 "Hg10 mi
7:50 PM66 °FPartly sunny.3 mph64%29.89 "HgN/A
6:50 PM68 °FBroken clouds.6 mph60%29.86 "HgN/A
6:20 PM68 °FBroken clouds.7 mph56%29.86 "HgN/A
5:50 PM68 °FBroken clouds.6 mph60%29.86 "HgN/A
5:20 PM68 °FBroken clouds.9 mph56%29.86 "HgN/A
4:50 PM70 °FScattered clouds.12 mph53%29.86 "HgN/A
4:20 PM70 °FScattered clouds.8 mph57%29.86 "HgN/A
3:50 PM68 °FScattered clouds.9 mph60%29.86 "HgN/A
3:20 PM68 °FScattered showers. Broken clouds.17 mph56%29.86 "HgN/A
2:50 PM72 °FScattered clouds.15 mph53%29.86 "HgN/A
2:20 PM72 °FScattered clouds.16 mph53%29.86 "HgN/A
1:50 PM70 °FScattered clouds.18 mph53%29.86 "HgN/A
1:20 PM68 °FScattered clouds.16 mph60%29.86 "HgN/A
12:50 PM66 °FScattered clouds.17 mph60%29.86 "HgN/A
12:20 PM66 °FSunny.17 mph64%29.86 "Hg10 mi
11:50 AM64 °FSunny.16 mph68%29.83 "Hg10 mi
11:20 AM66 °FScattered clouds.17 mph64%29.83 "HgN/A
10:50 AM63 °FScattered clouds.18 mph73%29.83 "HgN/A
9:20 AM61 °FPartly sunny.16 mph72%29.80 "HgN/A
Weather by CustomWeather, © 2016

See weather overviewHow to use our weather pages